This is the latest recevied weather packets stored in our database for station/object DL4ABR-6. If no packets are shown the sender has not sent any weather packets the latest 10 day(s).
| Time | Temp. | Humidity | Pressure | Rain* | Wind** | Luminosity | Snow |
|---|---|---|---|---|---|---|---|
| 1778035920 | 8.89° C | 99% | 1002.4 hPa | 4.06 mm | - | - | - |
| 1778035050 | 9.44° C | 99% | 1002.5 hPa | 3.56 mm | - | - | - |
| 1778034320 | 9.44° C | 99% | 1002.6 hPa | 2.79 mm | - | - | - |
| 1778033525 | 9.44° C | 99% | 1002.6 hPa | 2.29 mm | - | - | - |
| 1778032635 | 9.44° C | 99% | 1002.5 hPa | 1.52 mm | - | - | - |
| 1778031875 | 10° C | 99% | 1002.8 hPa | 1.27 mm | - | - | - |
| 1778031140 | 10° C | 99% | 1002.8 hPa | 0.76 mm | - | - | - |
| 1778030335 | 10° C | 99% | 1002.6 hPa | 0.51 mm | - | - | - |
| 1778029555 | 10° C | 99% | 1002.9 hPa | 0.51 mm | - | - | - |
| 1778028785 | 10° C | 99% | 1002.8 hPa | 0.25 mm | - | - | - |
| 1778027935 | 10.56° C | 99% | 1003.1 hPa | 0 mm | - | - | - |
| 1778027080 | 10.56° C | 99% | 1003.1 hPa | 0 mm | - | - | - |
| 1778026260 | 10.56° C | 99% | 1003.2 hPa | 0 mm | - | - | - |
| 1778025437 | 10.56° C | 99% | 1003.6 hPa | 0 mm | - | - | - |
| 1778024710 | 10.56° C | 99% | 1003.6 hPa | 0 mm | - | - | - |
| 1778023950 | 10.56° C | 99% | 1003.7 hPa | 0 mm | - | - | - |
| 1778023055 | 10.56° C | 99% | 1003.8 hPa | 0 mm | - | - | - |
| 1778022300 | 10.56° C | 99% | 1003.6 hPa | 0 mm | - | - | - |
| 1778021465 | 10.56° C | 99% | 1003.9 hPa | 0 mm | - | - | - |
| 1778020695 | 10.56° C | 99% | 1003.8 hPa | 0 mm | - | - | - |
| 1778019970 | 10.56° C | 99% | 1003.9 hPa | 0 mm | - | - | - |
| 1778019195 | 10.56° C | 99% | 1004 hPa | 0 mm | - | - | - |
| 1778018390 | 10.56° C | 99% | 1004.3 hPa | 3.81 mm | - | - | - |
| 1778017619 | 10.56° C | 99% | 1004.2 hPa | 3.81 mm | - | - | - |
| 1778016885 | 10.56° C | 99% | 1004.1 hPa | 3.81 mm | - | - | - |
* Rain since midnight (hover to see other rain measurements)
** Current wind speed in m/s (hover to see current wind gust speed)